{"data":{"norad_id":64356,"intl_designator":"2025-126N","name":"STARLINK-34397","alt_names":[],"object_type":"PAYLOAD","status":"ACTIVE","operator":null,"country":"US","launch_date":"2025-06-13","launch_site_code":"AFWTR","launch_vehicle":null,"mission":null,"orbit_class":"UNKNOWN","rcs_meters":null,"size_class":null,"mass_kg":null,"dimensions":null,"purposes":["comms"],"wikipedia_slug":null,"has_3d_model":false,"image_url":null,"decayed_at":null,"tle_current":{"epoch":"2026-05-25T04:01:38.836704Z","epoch_age_seconds":57213,"freshness":"FRESH","line1":"1 64356U 25126N   26145.16781061  .00003737  00000+0  32072-3 0  9994","line2":"2 64356  70.0004 201.7822 0003819 268.8715  91.2007 14.98337326 52133","mean_motion":14.98337326,"eccentricity":0.0003819,"inclination_deg":70.0004,"raan_deg":201.7822,"arg_perigee_deg":268.8715,"mean_anomaly_deg":91.2007,"bstar":0.00032072,"rev_number":5213,"period_min":96.106529218241,"perigee_km":569.37896597293,"apogee_km":574.68750599917,"semimajor_km":6950.170235986,"source":"CELESTRAK","updated_at":"2026-05-25T13:38:20.403594Z"}}}